Regional Weather Roundup
Issued by NWS

Home | Current Version | Previous Version | Text Only | Print | Product List | Glossary Off
Versions: 1 2 3 4 5 6 7 8 9 10 11 12 13 14 15 16 17 18 19 20 21 22 23 24 25 26 27 28 29 30 31 32 33 34 35 36 37 38 39 40 41 42 43 44 45 46 47 48 49 50

000
ASUS43 KLMK 211602
RWRKY
KENTUCKY REGIONAL WEATHER ROUNDUP
NATIONAL WEATHER SERVICE LOUISVILLE KY
1100 AM EST TUE NOV 21 2017

NOTE "FAIR" INDICATES FEW OR NO CLOUDS BELOW 12,000 FEET
WITH NO SIGNIFICANT WEATHER AND/OR OBSTRUCTIONS TO VISIBILITY.

KYZ001>023-026-027-061>063-070>075-211700-
WESTERN AND SOUTH CENTRAL KENTUCKY

CITY           SKY/WX    TMP DP  RH WIND       PRES   REMARKS
PADUCAH        SUNNY     52  30  43 SW12G21   30.02R
HENDERSON      SUNNY     51  34  52 SW17G24   29.99R
OWENSBORO      SUNNY     51  32  48 SW17      30.01R
HOPKINSVILLE   SUNNY     51  30  45 S13       30.04S
BOWLING GREEN  SUNNY     52  32  46 SW15G22   30.06F
GLASGOW        NOT AVBL
$$

KYZ024-025-028>034-038-045-046-053-211700-
NORTH CENTRAL KENTUCKY

CITY           SKY/WX    TMP DP  RH WIND       PRES   REMARKS
LOUISVILLE/SDF MOSUNNY   53  29  39 SW17G26   30.00S
LOUISVILLE/LOU SUNNY     52  31  44 SW16G25   30.01S
FORT KNOX      SUNNY     50  30  46 S16G23    29.99S
$$

KYZ035>037-039>044-047>052-055>060-089>105-211700-
NORTHEAST KENTUCKY

CITY           SKY/WX    TMP DP  RH WIND       PRES   REMARKS
LEXINGTON      SUNNY     51  34  52 SW22G38   30.02F
COVINGTON      MOSUNNY   48  31  51 S18G26    29.95F
FRANKFORT      SUNNY     51  31  46 SW17G28   30.01S
$$

KYZ054-064>069-076>088-106>120-211700-
SOUTHEAST KENTUCKY

CITY           SKY/WX    TMP DP  RH WIND       PRES   REMARKS
JACKSON        CLOUDY    54  37  52 S8G18     30.05F
LONDON         SUNNY     52  36  54 SW6       30.07S
SOMERSET       SUNNY     54  34  47 SW7       30.08S
MIDDLESBORO    MOSUNNY   50  33  52 S12       30.11F
MONTICELLO     SUNNY     57  36  45 SW16G30   30.08S
$$





USA.gov is the U.S. government's official web portal to all federal, state and local government web resources and services.